This is the latest recevied weather packets stored in our database for station/object KJ4EWA. If no packets are shown the sender has not sent any weather packets the latest 10 day(s).
| Time | Temp. | Humidity | Pressure | Rain* | Wind** | Luminosity | Snow |
|---|---|---|---|---|---|---|---|
| 1777587987 | 26.11° C | 80% | 1013.4 hPa | 0 mm | - | 69 W/m² | - |
| 1777587683 | 26.67° C | 81% | 1013.3 hPa | 0 mm | - | 93 W/m² | - |
| 1777587378 | 26.67° C | 82% | 1013.1 hPa | 0 mm | - | 146 W/m² | - |
| 1777587074 | 25.56° C | 83% | 1013.3 hPa | 0 mm | - | 157 W/m² | - |
| 1777586770 | 26.11° C | 81% | 1013.1 hPa | 0 mm | - | 113 W/m² | - |
| 1777586466 | 27.22° C | 77% | 1013.1 hPa | 0 mm | - | 153 W/m² | - |
| 1777586161 | 27.78° C | 80% | 1012.8 hPa | 0 mm | - | 250 W/m² | - |
| 1777585858 | 27.78° C | 77% | 1013.3 hPa | 0 mm | - | 274 W/m² | - |
| 1777585553 | 26.67° C | 79% | 1013.1 hPa | 0 mm | - | 306 W/m² | - |
| 1777585249 | 26.67° C | 80% | 1013.1 hPa | 0 mm | - | 191 W/m² | - |
| 1777584944 | 26.67° C | 82% | 1013 hPa | 0 mm | - | 172 W/m² | - |
| 1777584641 | 26.67° C | 80% | 1012.9 hPa | 0 mm | - | 170 W/m² | - |
| 1777584338 | 26.67° C | 84% | 1013.1 hPa | 0 mm | - | 171 W/m² | - |
| 1777584034 | 26.11° C | 80% | 1013.5 hPa | 0 mm | - | 181 W/m² | - |
| 1777583729 | 26.11° C | 84% | 1013.6 hPa | 0 mm | - | 135 W/m² | - |
| 1777583428 | 26.67° C | 82% | 1013.6 hPa | 0 mm | - | 142 W/m² | - |
| 1777583127 | 26.67° C | 82% | 1013.4 hPa | 0 mm | - | 155 W/m² | - |
| 1777582823 | 27.22° C | 78% | 1013.8 hPa | 0 mm | - | 212 W/m² | - |
| 1777582521 | 27.78° C | 82% | 1014.1 hPa | 0 mm | - | 347 W/m² | - |
| 1777582216 | 27.22° C | 79% | 1013.9 hPa | 0 mm | - | 241 W/m² | - |
| 1777581914 | 26.67° C | 79% | 1014.1 hPa | 0 mm | - | 202 W/m² | - |
| 1777581608 | 27.22° C | 85% | 1014.2 hPa | 0 mm | - | 212 W/m² | - |
| 1777581303 | 26.67° C | 79% | 1014.3 hPa | 0 mm | - | 314 W/m² | - |
| 1777580998 | 26.67° C | 80% | 1014.1 hPa | 0 mm | - | 439 W/m² | - |
| 1777580698 | 26.11° C | 83% | 1014.4 hPa | 0 mm | - | 268 W/m² | - |
* Rain latest hour (hover to see other rain measurements)
** Current wind speed in m/s (hover to see current wind gust speed)